Dewpoint
-10 -11 -13 -13 -15 -10 -9 -10 -14 -20 -25 -29 -31 -30 -29 -25 -23 -30 -29 -23 -23 -21 -13 -17 -10 -9 -8 -8 -7 -7 -6 -7 -6 -6 -6 -6 -6 -6 -6 -6 -6 -6 -6
-9 -11 -13 -16 -11 -9 -14 -17 -24 -28 -31 -32 -31 -30 -29 -29 -28 -26 -28 -28 -28 -28 -27 -27 -26 -19 -13 -15 -10 -8 -7 -7 -7 -7 -7 -8 -8 -8 -7 -7 -7 -7 -7
-11 -15 -18 -23 -21 -23 -26 -30 -31 -31 -33 -33 -31 -28 -26 -26 -26 -26 -26 -26 -26 -27 -27 -28 -29 -29 -27 -24 -26 -21 -10 -7 -7 -7 -7 -8 -9 -14 -9 -8 -8 -7 -8
-8 -18 -22 -20 -22 -23 -28 -31 -31 -31 -33 -33 -29 -25 -24 -23 -23 -24 -24 -25 -25 -25 -26 -27 -27 -29 -30 -29 -29 -30 -21 -9 -8 -8 -8 -9 -14 -15 -10 -9 -8 -8 -8
-6 -15 -21 -19 -20 -22 -28 -29 -27 -30 -32 -30 -27 -24 -22 -21 -20 -16 -22 -22 -21 -22 -21 -21 -27 -26 -30 -31 -31 -32 -32 -18 -10 -9 -9 -10 -20 -24 -13 -10 -10 -9 -8
-6 -7 -14 -12 -11 -12 -10 -11 -9 -14 -26 -21 -22 -21 -21 -22 -22 -21 -12 -16 -18 -12 -11 -13 -18 -24 -17 -19 -24 -27 -33 -34 -21 -12 -11 -13 -22 -27 -18 -12 -11 -9 -9
-6 -6 -8 -8 -9 -11 -11 -10 -10 -10 -10 -9 -9 -9 -16 -22 -22 -21 -15 -11 -11 -11 -11 -12 -15 -22 -24 -16 -17 -17 -19 -32 -34 -19 -16 -20 -21 -32 -23 -14 -14 -12 -9
-6 -5 -5 -6 -9 -12 -12 -11 -11 -10 -10 -10 -9 -9 -12 -23 -23 -21 -15 -10 -10 -12 -12 -12 -13 -21 -28 -21 -16 -17 -16 -22 -33 -33 -28 -27 -28 -33 -30 -15 -14 -14 -10
-5 -5 -5 -7 -10 -12 -12 -11 -10 -10 -10 -10 -9 -9 -11 -24 -23 -22 -15 -12 -11 -11 -15 -20 -19 -21 -28 -28 -15 -16 -16 -16 -17 -18 -18 -18 -17 -26 -34 -24 -17 -15 -12
-4 -5 -6 -9 -11 -12 -12 -11 -11 -11 -10 -10 -10 -9 -10 -24 -25 -22 -14 -12 -10 -10 -10 -12 -20 -22 -24 -27 -25 -23 -25 -27 -14 -14 -13 -14 -14 -14 -16 -20 -17 -14 -14
-6 -5 -7 -9 -11 -12 -11 -10 -11 -11 -11 -11 -13 -14 -17 -17 -26 -24 -21 -11 -10 -10 -11 -11 -17 -23 -24 -25 -26 -29 -31 -28 -14 -13 -13 -13 -14 -14 -15 -15 -16 -16 -16
-5 -6 -8 -9 -11 -10 -9 -10 -11 -10 -13 -17 -25 -26 -26 -25 -26 -26 -25 -22 -20 -11 -12 -12 -19 -22 -24 -25 -27 -30 -32 -18 -14 -14 -14 -14 -15 -15 -15 -15 -15 -15 -15
-5 -8 -8 -9 -10 -9 -8 -8 -9 -9 -14 -16 -14 -10 -10 -15 -18 -24 -23 -21 -20 -14 -16 -18 -19 -21 -21 -18 -22 -26 -17 -16 -15 -15 -15 -15 -16 -16 -15 -15 -15 -15 -15
-6 -8 -9 -9 -9 -8 -8 -8 -8 -9 -9 -9 -10 -9 -9 -10 -10 -14 -18 -19 -18 -17 -18 -18 -16 -15 -15 -15 -15 -15 -16 -16 -16 -16 -16 -16 -16 -16 -16 -16 -16 -15 -15
-8 -9 -9 -9 -9 -9 -9 -9 -9 -8 -8 -8 -9 -9 -9 -10 -10 -11 -12 -12 -12 -13 -16 -13 -13 -13 -14 -15 -14 -15 -15 -16 -16 -17 -17 -17 -17 -17 -17 -17 -16 -16 -16
-9 -9 -9 -9 -9 -9 -10 -9 -9 -8 -9 -9 -8 -10 -12 -11 -11 -15 -17 -16 -15 -15 -14 -13 -13 -14 -14 -14 -14 -15 -15 -16 -18 -18 -17 -17 -18 -18 -18 -17 -17 -17 -17
-9 -9 -9 -9 -8 -9 -10 -9 -8 -9 -9 -13 -15 -17 -18 -19 -18 -17 -17 -16 -15 -15 -14 -13 -14 -14 -14 -15 -17 -17 -17 -17 -19 -18 -18 -18 -19 -19 -19 -18 -18 -18 -18
-9 -9 -9 -9 -8 -10 -9 -9 -8 -8 -11 -15 -17 -17 -16 -16 -15 -15 -15 -13 -14 -14 -14 -13 -14 -14 -15 -16 -18 -18 -18 -18 -18 -19 -19 -20 -20 -20 -19 -19 -19 -19 -19
-9 -9 -8 -8 -9 -9 -8 -8 -8 -8 -9 -9 -11 -15 -14 -14 -13 -14 -14 -13 -13 -12 -13 -13 -14 -15 -15 -16 -17 -18 -19 -19 -20 -20 -20 -20 -21 -21 -20 -20 -20 -20 -20
-7 -9 -10 -7 -8 -8 -8 -8 -8 -8 -9 -9 -10 -10 -12 -12 -12 -13 -13 -13 -13 -12 -13 -14 -15 -16 -16 -17 -18 -18 -19 -19 -19 -20 -20 -21 -21 -22 -21 -21 -21 -21 -21
-8 -12 -12 -7 -7 -8 -8 -8 -8 -8 -8 -9 -10 -10 -10 -11 -11 -12 -12 -12 -12 -13 -14 -15 -15 -16 -17 -18 -19 -19 -19 -20 -21 -21 -22 -22 -22 -23 -22 -22 -22 -22 -22
-10 -12 -12 -8 -7 -8 -8 -8 -8 -8 -8 -9 -9 -10 -10 -11 -11 -11 -11 -11 -13 -13 -14 -15 -16 -17 -18 -19 -19 -20 -20 -21 -22 -22 -22 -23 -23 -23 -23 -23 -23 -22 -23
-6 -10 -12 -8 -7 -7 -8 -8 -8 -8 -9 -9 -10 -10 -11 -11 -11 -11 -12 -13 -13 -14 -14 -15 -16 -17 -19 -26 -28 -25 -22 -22 -22 -23 -25 -24 -24 -24 -24 -24 -24 -24 -23
-6 -9 -11 -8 -10 -9 -9 -9 -8 -9 -9 -10 -10 -10 -11 -12 -12 -12 -13 -14 -14 -15 -15 -16 -17 -18 -26 -28 -27 -24 -24 -25 -26 -26 -26 -26 -26 -25 -25 -25 -25 -25 -24
-10 -12 -12 -12 -12 -11 -9 -9 -9 -10 -10 -11 -11 -11 -12 -12 -13 -13 -14 -14 -15 -15 -16 -17 -20 -29 -30 -29 -28 -27 -27 -27 -27 -26 -26 -26 -26 -25 -26 -26 -26 -26 -25
-12 -12 -12 -12 -12 -10 -9 -10 -10 -11 -11 -11 -12 -12 -13 -13 -14 -14 -15 -15 -16 -16 -17 -23 -30 -29 -29 -28 -28 -28 -27 -27 -27 -26 -26 -26 -26 -27 -27 -26 -26 -26 -26
Wind_Speed
14 13 12 11 10 9 8 7 7 6 5 4 3 4 4 6 7 8 9 10 11 11 12 12 13 13 12 11 11 12 12 12 8 12 14 14 15 13 14 17 18 18 21
16 15 14 14 12 11 10 9 8 8 7 6 6 5 6 6 7 9 10 11 11 12 13 13 14 13 12 13 12 12 12 14 13 12 15 17 16 16 13 14 16 18 19
20 19 17 15 12 11 10 9 10 9 8 7 7 7 7 8 9 9 10 11 12 13 14 15 16 16 16 16 16 14 12 11 12 12 14 14 16 18 16 15 17 13 15
22 21 17 14 13 12 12 11 10 9 9 9 9 8 8 10 10 11 11 11 12 13 14 15 15 17 18 17 17 18 16 12 12 12 13 15 18 18 16 19 19 19 19
22 21 20 16 15 14 13 12 11 10 10 10 9 8 8 7 8 11 10 10 11 12 13 14 15 14 16 17 17 18 17 14 14 13 14 15 21 23 22 21 19 18 19
23 21 21 18 15 13 13 12 11 10 10 9 8 7 7 8 8 7 10 9 10 10 10 10 11 14 16 20 21 18 18 17 15 15 14 17 19 21 19 22 22 20 16
24 22 21 19 17 16 15 14 13 12 12 11 9 7 6 7 6 7 11 7 7 8 9 9 10 12 10 10 14 15 17 16 15 13 14 16 18 21 19 19 19 17 13
26 23 22 20 18 17 16 15 14 13 12 11 10 9 6 7 6 7 10 6 6 6 7 8 9 10 11 10 9 10 12 14 15 14 13 14 16 18 17 14 15 13 5
26 25 22 21 20 18 18 17 15 14 12 11 10 9 6 7 6 6 9 4 4 4 5 5 7 9 9 10 9 8 9 13 13 16 18 18 17 17 15 14 16 13 12
26 23 22 21 20 19 18 17 15 14 13 12 11 10 12 6 6 7 8 4 3 1 2 7 6 9 9 10 10 9 10 13 13 13 13 14 16 17 20 17 15 14 13
24 22 21 21 20 19 18 16 16 14 13 15 16 14 12 9 6 6 6 5 3 3 2 4 9 11 11 12 12 13 13 14 12 12 11 12 12 13 14 16 19 13 12
22 22 22 21 19 19 19 17 16 15 20 16 13 11 10 10 7 7 6 4 4 3 2 4 8 9 11 11 13 13 13 10 10 10 11 12 13 14 14 15 14 16 17
22 23 22 21 19 19 19 17 16 14 14 12 11 9 8 7 7 7 5 4 3 3 4 4 7 9 11 12 13 12 11 10 10 10 11 12 13 14 13 14 12 13 13
23 23 22 21 19 18 17 16 15 14 12 11 11 11 10 9 9 6 6 5 3 4 5 6 9 10 14 15 13 13 11 10 11 10 11 12 12 12 12 13 13 14 12
23 22 21 19 19 18 16 15 15 13 13 13 13 12 13 11 12 10 7 5 5 5 7 5 6 6 7 9 9 12 11 12 9 10 10 11 12 12 12 12 12 12 11
23 22 21 19 19 17 17 18 19 16 20 19 16 13 13 13 14 10 10 9 8 6 5 4 5 6 8 8 9 10 9 10 10 9 10 11 12 12 13 11 11 11 12
21 20 19 18 18 18 18 16 14 23 17 18 17 14 11 10 11 11 10 9 8 7 2 6 7 7 7 9 9 9 9 10 13 9 9 10 11 11 12 12 12 12 12
19 20 19 19 18 18 18 17 14 13 18 17 16 14 13 12 10 10 9 10 11 10 7 7 7 7 8 9 9 9 9 9 9 9 8 10 10 11 11 11 12 13 14
21 23 22 21 23 21 19 16 15 14 11 11 13 15 15 14 13 12 12 14 12 12 10 8 8 8 8 9 10 10 10 9 13 9 8 10 11 11 11 11 12 14 15
17 18 20 16 17 16 15 15 14 14 13 14 13 12 13 15 16 15 15 13 14 14 13 10 9 9 10 10 10 10 9 9 9 9 10 10 10 10 10 12 12 13 13
17 16 16 14 14 15 15 15 14 14 14 15 15 15 16 15 12 13 16 15 15 15 16 14 13 13 14 10 9 8 9 9 9 9 8 9 11 10 11 11 12 12 13
16 15 15 14 14 15 14 13 14 15 14 15 15 17 18 18 15 13 17 20 17 17 20 19 15 12 13 11 10 9 9 9 8 9 9 10 10 10 11 12 12 13 13
14 14 15 13 13 13 14 14 15 16 16 16 15 19 18 17 14 15 17 21 22 21 20 17 17 16 14 17 13 11 9 7 11 13 13 11 10 10 11 12 12 13 12
14 15 14 15 15 14 13 13 15 13 13 14 15 15 14 10 15 17 21 21 19 19 19 18 18 18 18 15 14 11 11 12 12 13 15 14 13 11 11 12 11 11 12
16 15 16 15 13 13 11 11 12 13 14 14 12 14 15 15 17 18 19 19 18 18 19 18 18 18 15 14 15 15 15 14 14 15 16 16 14 14 12 11 11 11 12
16 16 16 14 12 12 12 12 12 12 11 11 14 14 16 16 16 16 17 17 16 17 18 18 17 15 14 14 14 13 13 14 14 14 15 15 14 10 10 10 11 11 11
Wind_Direction
186 174 174 171 170 161 155 155 163 165 156 155 144 124 117 108 97 87 82 80 67 64 57 48 45 36 28 30 17 13 18 15 2 343 344 350 357 7 14 8 13 16 15
189 184 180 185 166 170 177 180 184 186 181 167 152 143 124 117 104 96 84 76 69 64 57 51 48 41 42 31 26 21 18 6 8 353 350 355 3 7 15 6 357 10 10
195 194 194 191 195 202 199 197 194 192 180 167 156 141 130 114 99 91 84 76 67 60 54 49 45 41 38 34 29 27 26 14 9 2 359 357 3 5 10 17 0 7 6
199 196 197 192 199 202 195 190 185 176 169 163 150 141 128 111 102 87 76 71 64 57 51 45 41 40 38 33 30 28 30 28 19 10 4 2 3 12 16 17 11 6 358
193 191 192 192 197 194 184 178 175 168 165 158 153 145 129 120 104 85 69 63 58 50 44 37 34 36 38 33 28 29 26 27 23 19 11 6 7 12 14 16 7 11 351
182 185 182 181 176 178 175 165 164 167 159 146 144 135 128 120 108 97 88 54 59 60 51 44 27 34 19 13 14 22 25 25 28 23 13 12 8 9 16 17 359 5 354
180 179 176 179 176 177 172 168 170 165 162 159 149 137 138 133 121 112 107 89 75 62 57 46 32 21 36 36 11 14 3 17 24 28 17 12 6 8 8 5 359 354 339
179 179 178 176 178 175 172 171 168 168 165 159 153 148 160 152 138 125 109 98 79 73 68 50 33 16 21 27 20 13 9 4 10 17 15 9 6 5 9 360 353 355 355
180 183 181 175 177 175 175 173 171 168 167 161 158 155 171 170 154 141 106 104 89 55 13 34 29 12 16 15 24 10 4 356 359 4 4 3 4 358 2 9 15 11 2
182 175 176 177 177 177 176 174 173 171 168 166 156 159 184 185 171 154 125 149 140 89 53 351 3 1 6 5 5 359 349 349 355 359 355 355 358 356 358 6 15 14 10
173 174 175 176 176 175 174 173 170 174 170 175 184 188 182 195 186 186 186 177 173 187 233 316 328 350 356 356 353 350 350 352 358 352 350 342 349 352 355 1 354 7 9
183 172 174 175 174 175 174 175 173 181 195 198 198 196 200 209 207 206 214 225 213 192 221 287 329 343 349 347 345 344 342 357 350 350 347 342 346 346 353 350 352 350 346
171 172 174 174 176 175 176 176 176 185 185 190 193 188 199 208 225 215 218 212 217 202 266 310 331 338 348 348 345 347 356 351 354 350 345 339 340 341 349 338 350 344 354
173 174 175 177 177 178 179 182 184 184 183 189 192 195 200 195 235 235 215 225 236 266 290 327 359 5 1 2 354 340 346 350 352 342 338 336 337 338 343 336 345 344 349
175 177 178 180 179 182 183 187 190 193 196 201 203 198 205 201 218 226 224 232 247 248 309 345 348 335 334 331 334 333 340 337 334 339 337 336 336 337 336 343 340 340 337
176 179 182 182 181 186 184 190 194 202 208 201 208 219 216 211 229 239 234 243 245 268 307 292 302 319 327 328 325 326 325 324 319 339 333 333 332 335 331 344 334 337 331
180 181 184 183 186 190 191 194 201 209 217 214 221 229 236 234 233 242 240 243 242 259 276 267 293 308 320 319 318 318 316 310 336 324 331 327 328 332 338 333 332 332 329
183 185 188 183 190 191 193 197 198 219 213 218 221 227 229 232 236 246 247 254 259 257 233 255 273 291 309 311 312 310 307 307 310 315 327 321 328 331 332 329 330 327 327
184 189 195 191 193 193 194 196 197 212 204 208 220 218 225 232 238 243 238 231 236 247 231 261 262 285 297 302 299 303 300 304 309 323 321 318 319 325 325 324 325 323 329
184 197 199 189 193 192 193 197 199 205 207 216 226 225 231 227 233 236 237 236 234 243 250 247 253 268 282 293 293 290 301 300 301 303 300 312 312 316 320 319 321 321 322
188 192 189 183 190 193 195 200 206 208 212 219 231 236 241 243 241 242 236 239 234 243 243 247 248 268 290 290 288 285 286 287 291 293 303 302 302 315 315 314 314 315 315
192 193 193 189 192 196 197 204 211 216 220 225 232 240 241 239 237 240 248 224 227 238 244 256 261 265 273 273 270 270 276 282 288 290 292 296 305 306 309 308 312 310 312
188 196 196 191 193 205 205 210 221 224 228 232 230 241 242 244 231 234 233 240 253 258 254 261 270 276 281 291 283 277 274 272 266 281 295 296 298 301 300 308 307 306 308
193 200 196 200 207 217 222 217 221 226 222 227 226 227 246 231 223 231 243 253 254 253 262 269 274 279 280 281 283 287 284 283 292 296 301 304 302 303 299 299 301 300 302
207 205 207 219 222 218 216 216 214 209 214 221 226 228 228 227 232 246 252 253 253 259 270 279 284 286 281 280 279 282 289 291 292 299 298 300 300 299 302 302 300 302 301
209 209 215 219 222 215 216 211 214 217 218 222 226 227 235 241 247 249 253 256 261 266 276 280 283 279 284 282 283 287 290 293 294 296 297 300 300 299 296 289 286 291 295
Height
1481 1484 1486 1489 1490 1493 1494 1494 1495 1496 1496 1497 1496 1496 1496 1496 1496 1494 1492 1491 1491 1490 1490 1489 1488 1487 1486 1485 1484 1480 1477 1475 1473 1471 1466 1462 1458 1455 1453 1450 1445 1441 1435
1478 1481 1484 1485 1488 1490 1490 1492 1493 1495 1495 1495 1496 1496 1496 1496 1495 1493 1493 1492 1492 1491 1490 1489 1488 1487 1485 1483 1482 1481 1480 1477 1473 1471 1467 1463 1459 1455 1453 1450 1446 1442 1438
1475 1478 1480 1482 1485 1487 1489 1490 1492 1493 1494 1494 1496 1496 1496 1496 1495 1494 1494 1493 1493 1492 1491 1490 1489 1488 1485 1483 1481 1478 1477 1478 1475 1473 1469 1465 1460 1455 1453 1450 1447 1443 1440
1470 1474 1477 1480 1483 1486 1488 1489 1491 1492 1493 1494 1496 1496 1496 1495 1495 1495 1495 1495 1494 1494 1493 1492 1491 1489 1486 1484 1482 1479 1477 1476 1474 1472 1469 1465 1460 1456 1453 1450 1447 1443 1441
1467 1470 1474 1479 1480 1485 1486 1487 1490 1491 1493 1494 1496 1496 1496 1496 1495 1496 1496 1496 1495 1495 1494 1493 1492 1490 1488 1486 1484 1481 1478 1475 1474 1472 1469 1465 1460 1455 1452 1451 1450 1447 1443
1464 1467 1471 1475 1479 1483 1486 1486 1490 1491 1493 1494 1495 1496 1496 1496 1496 1497 1498 1498 1498 1498 1498 1497 1494 1492 1489 1487 1484 1482 1480 1477 1474 1472 1470 1465 1462 1458 1455 1453 1452 1448 1446
1462 1466 1469 1472 1478 1482 1484 1487 1490 1492 1494 1496 1497 1497 1496 1497 1497 1498 1498 1502 1502 1501 1500 1499 1496 1493 1491 1492 1490 1486 1481 1479 1475 1474 1470 1466 1463 1459 1456 1455 1454 1452 1448
1459 1462 1466 1469 1476 1479 1483 1486 1489 1492 1494 1495 1497 1498 1496 1497 1497 1498 1499 1502 1502 1500 1499 1499 1497 1493 1491 1489 1491 1489 1484 1480 1477 1474 1471 1468 1465 1461 1458 1458 1456 1454 1453
1455 1458 1461 1468 1473 1477 1482 1485 1488 1491 1493 1494 1496 1497 1497 1496 1497 1498 1498 1503 1502 1501 1498 1497 1495 1493 1492 1490 1490 1488 1485 1481 1478 1475 1472 1469 1466 1462 1459 1456 1453 1453 1451
1452 1456 1462 1467 1471 1476 1480 1484 1487 1490 1492 1492 1495 1496 1495 1495 1497 1498 1498 1501 1502 1502 1500 1497 1495 1493 1491 1489 1487 1485 1483 1480 1478 1477 1476 1472 1469 1465 1460 1456 1454 1453 1451
1451 1455 1461 1465 1470 1474 1478 1482 1486 1488 1489 1490 1490 1492 1493 1494 1495 1497 1497 1498 1500 1501 1499 1497 1494 1492 1490 1488 1486 1484 1481 1479 1479 1477 1476 1473 1470 1466 1463 1460 1456 1454 1452
1448 1454 1459 1464 1468 1472 1476 1480 1483 1485 1485 1487 1489 1491 1492 1493 1494 1495 1496 1496 1497 1498 1497 1495 1493 1491 1489 1487 1485 1483 1480 1478 1478 1477 1475 1472 1469 1466 1463 1461 1458 1456 1453
1448 1453 1458 1463 1466 1470 1473 1477 1481 1482 1483 1486 1488 1492 1492 1492 1492 1493 1494 1494 1495 1495 1494 1494 1492 1490 1488 1486 1484 1481 1480 1477 1476 1476 1474 1471 1468 1465 1463 1461 1458 1456 1454
1448 1453 1457 1461 1465 1469 1472 1476 1479 1481 1483 1486 1488 1491 1492 1493 1492 1491 1492 1492 1493 1493 1493 1492 1491 1489 1488 1486 1485 1483 1480 1477 1476 1474 1472 1470 1467 1465 1463 1460 1458 1455 1454
1447 1452 1456 1460 1463 1467 1471 1474 1477 1479 1482 1485 1486 1488 1489 1490 1491 1491 1491 1492 1492 1493 1492 1492 1491 1491 1489 1488 1486 1483 1481 1477 1476 1473 1471 1469 1466 1464 1462 1459 1458 1455 1454
1446 1450 1454 1458 1461 1466 1469 1471 1474 1476 1478 1480 1482 1484 1485 1487 1488 1489 1490 1490 1491 1491 1491 1492 1491 1489 1488 1486 1484 1482 1480 1478 1474 1472 1470 1468 1465 1462 1460 1459 1457 1455 1452
1444 1449 1452 1456 1459 1463 1467 1469 1470 1473 1474 1477 1479 1481 1482 1484 1485 1486 1487 1488 1488 1489 1489 1490 1488 1487 1486 1485 1483 1481 1478 1476 1471 1470 1468 1466 1463 1461 1459 1458 1455 1453 1450
1444 1447 1450 1454 1457 1461 1464 1467 1469 1469 1471 1473 1475 1477 1479 1481 1482 1483 1484 1485 1485 1485 1486 1487 1486 1485 1484 1482 1480 1478 1475 1473 1471 1468 1466 1464 1461 1459 1458 1456 1453 1451 1448
1441 1444 1447 1451 1454 1457 1460 1463 1466 1468 1470 1472 1472 1474 1476 1478 1479 1480 1481 1482 1483 1484 1483 1484 1483 1482 1481 1480 1477 1474 1472 1470 1467 1465 1464 1462 1460 1457 1456 1454 1451 1449 1446
1439 1441 1445 1448 1451 1455 1458 1461 1463 1465 1468 1469 1470 1470 1472 1474 1474 1476 1477 1478 1480 1481 1480 1479 1479 1478 1477 1475 1474 1472 1470 1468 1467 1464 1462 1460 1457 1455 1453 1452 1449 1447 1445
1436 1439 1442 1446 1449 1452 1455 1458 1460 1462 1464 1466 1467 1468 1468 1469 1471 1472 1473 1474 1475 1476 1475 1475 1474 1473 1471 1470 1469 1468 1467 1464 1463 1460 1458 1456 1454 1451 1451 1449 1447 1445 1443
1434 1438 1441 1443 1447 1449 1452 1455 1457 1459 1461 1462 1463 1463 1465 1467 1468 1469 1469 1468 1469 1470 1469 1469 1469 1468 1467 1465 1464 1462 1461 1460 1458 1456 1454 1452 1450 1449 1447 1446 1444 1442 1440
1433 1436 1439 1442 1445 1447 1449 1452 1453 1455 1457 1458 1460 1459 1461 1462 1464 1465 1464 1464 1464 1464 1464 1464 1464 1463 1461 1458 1457 1456 1455 1455 1453 1450 1448 1447 1446 1445 1443 1441 1440 1439 1437
1432 1434 1437 1439 1442 1444 1446 1447 1450 1451 1453 1455 1456 1457 1457 1458 1459 1459 1459 1459 1459 1459 1459 1459 1458 1457 1455 1454 1452 1451 1450 1448 1447 1446 1444 1442 1441 1440 1439 1437 1436 1435 1434
1429 1432 1434 1436 1438 1441 1442 1444 1446 1448 1450 1451 1452 1453 1453 1454 1454 1454 1454 1454 1454 1454 1453 1453 1452 1450 1450 1449 1448 1447 1445 1445 1443 1442 1440 1438 1437 1435 1434 1433 1433 1432 1431
1427 1429 1432 1434 1435 1437 1439 1441 1443 1445 1446 1447 1448 1449 1449 1450 1449 1449 1449 1449 1450 1449 1448 1447 1446 1446 1445 1444 1443 1442 1442 1441 1439 1438 1436 1434 1432 1431 1431 1430 1429 1428 1427